Location: Libas
(9.8833°N, 125.9833°E)
Time: 09:43:30
(UTC+00:00)

Envisat - Pass Details

Date: 31 January 2021
Orbit: 764 x 766 km, 98.1° (Epoch: 27 February)

Event Time Altitude Azimuth Distance (km) Brightness Sun altitude
Rises 21:02:14 0° 11° (N) 3,217 6.2 -14.1°
Reaches altitude 10° 21:04:32 10° 11° (N) 2,292 5.4 -13.6°
Maximum altitude 21:09:36 87° 281° (WNW) 767 3.0 -12.4°
Drops below altitude 10° 21:14:39 10° 193° (SSW) 2,293 5.5 -11.2°
Sets 21:16:57 0° 193° (SSW) 3,219 6.3 -10.6°
